owner,sensor,date,latitude,longitude,sea_surface_height_above_sea_level,qcFlag 
TCOON,ioos:station:TCOON:518:1,2016-10-01T00:18:00Z,29.5150,-94.5133,1.615,1111122 
TCOON,ioos:station:TCOON:518:1,2016-10-01T01:18:00Z,29.5150,-94.5133,1.614,1111122 
TCOON,ioos:station:TCOON:518:1,2016-10-01T02:18:00Z,29.5150,-94.5133,1.62,1111122 
TCOON,ioos:station:TCOON:518:1,2016-10-01T03:18:00Z,29.5150,-94.5133,1.571,1111122 
TCOON,ioos:station:TCOON:518:1,2016-10-01T04:12:00Z,29.5150,-94.5133,1.538,1111122 
TCOON,ioos:station:TCOON:518:1,2016-10-01T05:18:00Z,29.5150,-94.5133,1.485,1111122 
TCOON,ioos:station:TCOON:518:1,2016-10-01T06:30:00Z,29.5150,-94.5133,1.453,1111122 
TCOON,ioos:station:TCOON:518:1,2016-10-01T07:18:00Z,29.5150,-94.5133,1.441,1111122 
TCOON,ioos:station:TCOON:518:1,2016-10-01T08:18:00Z,29.5150,-94.5133,1.429,1111122 
TCOON,ioos:station:TCOON:518:1,2016-10-01T09:18:00Z,29.5150,-94.5133,1.445,1111122 
TCOON,ioos:station:TCOON:518:1,2016-10-01T10:18:00Z,29.5150,-94.5133,1.494,1111122 
TCOON,ioos:station:TCOON:518:1,2016-10-01T11:18:00Z,29.5150,-94.5133,1.518,1111122 
TCOON,ioos:station:TCOON:518:1,2016-10-01T12:18:00Z,29.5150,-94.5133,1.522,1111122 
TCOON,ioos:station:TCOON:518:1,2016-10-01T13:18:00Z,29.5150,-94.5133,1.529,1111122 
TCOON,ioos:station:TCOON:518:1,2016-10-01T14:18:00Z,29.5150,-94.5133,1.483,1111122 
TCOON,ioos:station:TCOON:518:1,2016-10-01T15:18:00Z,29.5150,-94.5133,1.437,1111122 
TCOON,ioos:station:TCOON:518:1,2016-10-01T16:18:00Z,29.5150,-94.5133,1.387,1111122 
TCOON,ioos:station:TCOON:518:1,2016-10-01T17:12:00Z,29.5150,-94.5133,1.349,1111122 
TCOON,ioos:station:TCOON:518:1,2016-10-01T18:18:00Z,29.5150,-94.5133,1.305,1111122 
TCOON,ioos:station:TCOON:518:1,2016-10-01T19:18:00Z,29.5150,-94.5133,1.289,1111122 
TCOON,ioos:station:TCOON:518:1,2016-10-01T20:18:00Z,29.5150,-94.5133,1.347,1111122 
TCOON,ioos:station:TCOON:518:1,2016-10-01T21:18:00Z,29.5150,-94.5133,1.353,1111122 
TCOON,ioos:station:TCOON:518:1,2016-10-01T22:18:00Z,29.5150,-94.5133,1.434,1111122 
TCOON,ioos:station:TCOON:518:1,2016-10-01T23:18:00Z,29.5150,-94.5133,1.511,1111122 
TCOON,ioos:station:TCOON:518:1,2016-10-02T00:18:00Z,29.5150,-94.5133,1.544,1111122 
TCOON,ioos:station:TCOON:518:1,2016-10-02T01:18:00Z,29.5150,-94.5133,1.556,1111122 
TCOON,ioos:station:TCOON:518:1,2016-10-02T02:18:00Z,29.5150,-94.5133,1.584,1111122 
TCOON,ioos:station:TCOON:518:1,2016-10-02T03:12:00Z,29.5150,-94.5133,1.549,1111122 
TCOON,ioos:station:TCOON:518:1,2016-10-02T04:18:00Z,29.5150,-94.5133,1.53,1111122 
TCOON,ioos:station:TCOON:518:1,2016-10-02T05:18:00Z,29.5150,-94.5133,1.507,1111122 
TCOON,ioos:station:TCOON:518:1,2016-10-02T06:18:00Z,29.5150,-94.5133,1.497,1111122 
TCOON,ioos:station:TCOON:518:1,2016-10-02T07:12:00Z,29.5150,-94.5133,1.478,1111122 
TCOON,ioos:station:TCOON:518:1,2016-10-02T08:18:00Z,29.5150,-94.5133,1.456,1111122 
TCOON,ioos:station:TCOON:518:1,2016-10-02T09:18:00Z,29.5150,-94.5133,1.447,1111122 
TCOON,ioos:station:TCOON:518:1,2016-10-02T10:18:00Z,29.5150,-94.5133,1.473,1111122 
TCOON,ioos:station:TCOON:518:1,2016-10-02T11:18:00Z,29.5150,-94.5133,1.491,1111122 
TCOON,ioos:station:TCOON:518:1,2016-10-02T12:18:00Z,29.5150,-94.5133,1.512,1111122 
TCOON,ioos:station:TCOON:518:1,2016-10-02T13:18:00Z,29.5150,-94.5133,1.508,1111122 
TCOON,ioos:station:TCOON:518:1,2016-10-02T14:18:00Z,29.5150,-94.5133,1.469,1111122 
TCOON,ioos:station:TCOON:518:1,2016-10-02T15:18:00Z,29.5150,-94.5133,1.442,1111122 
TCOON,ioos:station:TCOON:518:1,2016-10-02T16:18:00Z,29.5150,-94.5133,1.402,1111122 
TCOON,ioos:station:TCOON:518:1,2016-10-02T17:18:00Z,29.5150,-94.5133,1.356,1111122 
TCOON,ioos:station:TCOON:518:1,2016-10-02T18:18:00Z,29.5150,-94.5133,1.334,1111122 
TCOON,ioos:station:TCOON:518:1,2016-10-02T19:18:00Z,29.5150,-94.5133,1.298,1111122 
TCOON,ioos:station:TCOON:518:1,2016-10-02T20:18:00Z,29.5150,-94.5133,1.329,1111122 
TCOON,ioos:station:TCOON:518:1,2016-10-02T21:18:00Z,29.5150,-94.5133,1.361,1111122 
TCOON,ioos:station:TCOON:518:1,2016-10-02T22:12:00Z,29.5150,-94.5133,1.418,1111122 
TCOON,ioos:station:TCOON:518:1,2016-10-02T23:18:00Z,29.5150,-94.5133,1.477,1111122 
TCOON,ioos:station:TCOON:518:1,2016-10-03T00:18:00Z,29.5150,-94.5133,1.514,1111122 
TCOON,ioos:station:TCOON:518:1,2016-10-03T01:30:00Z,29.5150,-94.5133,1.531,1111122 
TCOON,ioos:station:TCOON:518:1,2016-10-03T02:24:00Z,29.5150,-94.5133,1.56,1111122 
TCOON,ioos:station:TCOON:518:1,2016-10-03T03:18:00Z,29.5150,-94.5133,1.567,1111122 
TCOON,ioos:station:TCOON:518:1,2016-10-03T04:18:00Z,29.5150,-94.5133,1.585,1111122 
TCOON,ioos:station:TCOON:518:1,2016-10-03T05:18:00Z,29.5150,-94.5133,1.589,1111122 
TCOON,ioos:station:TCOON:518:1,2016-10-03T06:18:00Z,29.5150,-94.5133,1.578,1111122 
TCOON,ioos:station:TCOON:518:1,2016-10-03T07:18:00Z,29.5150,-94.5133,1.555,1111122 
TCOON,ioos:station:TCOON:518:1,2016-10-03T08:18:00Z,29.5150,-94.5133,1.519,1111122 
TCOON,ioos:station:TCOON:518:1,2016-10-03T09:18:00Z,29.5150,-94.5133,1.502,1111122 
TCOON,ioos:station:TCOON:518:1,2016-10-03T10:18:00Z,29.5150,-94.5133,1.47,1111122 
TCOON,ioos:station:TCOON:518:1,2016-10-03T11:18:00Z,29.5150,-94.5133,1.541,1111122 
TCOON,ioos:station:TCOON:518:1,2016-10-03T12:18:00Z,29.5150,-94.5133,1.548,1111122 
TCOON,ioos:station:TCOON:518:1,2016-10-03T13:18:00Z,29.5150,-94.5133,1.525,1111122 
TCOON,ioos:station:TCOON:518:1,2016-10-03T14:18:00Z,29.5150,-94.5133,1.5,1111122 
TCOON,ioos:station:TCOON:518:1,2016-10-03T15:18:00Z,29.5150,-94.5133,1.478,1111122 
TCOON,ioos:station:TCOON:518:1,2016-10-03T16:18:00Z,29.5150,-94.5133,1.428,1111122 
TCOON,ioos:station:TCOON:518:1,2016-10-03T17:42:00Z,29.5150,-94.5133,1.377,1111122 
TCOON,ioos:station:TCOON:518:1,2016-10-03T18:18:00Z,29.5150,-94.5133,1.353,1111122 
TCOON,ioos:station:TCOON:518:1,2016-10-03T19:18:00Z,29.5150,-94.5133,1.339,1111122 
TCOON,ioos:station:TCOON:518:1,2016-10-03T20:18:00Z,29.5150,-94.5133,1.325,1111122 
TCOON,ioos:station:TCOON:518:1,2016-10-03T21:18:00Z,29.5150,-94.5133,1.344,1111122 
TCOON,ioos:station:TCOON:518:1,2016-10-03T22:18:00Z,29.5150,-94.5133,1.377,1111122 
TCOON,ioos:station:TCOON:518:1,2016-10-03T23:18:00Z,29.5150,-94.5133,1.459,1111122 
TCOON,ioos:station:TCOON:518:1,2016-10-04T00:18:00Z,29.5150,-94.5133,1.536,1111122 
TCOON,ioos:station:TCOON:518:1,2016-10-04T01:18:00Z,29.5150,-94.5133,1.601,1111122 
TCOON,ioos:station:TCOON:518:1,2016-10-04T02:18:00Z,29.5150,-94.5133,1.65,1111122 
TCOON,ioos:station:TCOON:518:1,2016-10-04T03:18:00Z,29.5150,-94.5133,1.684,1111122 
TCOON,ioos:station:TCOON:518:1,2016-10-04T04:18:00Z,29.5150,-94.5133,1.701,1111122 
TCOON,ioos:station:TCOON:518:1,2016-10-04T05:18:00Z,29.5150,-94.5133,1.707,1111122 
TCOON,ioos:station:TCOON:518:1,2016-10-04T06:18:00Z,29.5150,-94.5133,1.67,1111122 
TCOON,ioos:station:TCOON:518:1,2016-10-04T07:18:00Z,29.5150,-94.5133,1.673,1111122 
TCOON,ioos:station:TCOON:518:1,2016-10-04T08:18:00Z,29.5150,-94.5133,1.686,1111122 
TCOON,ioos:station:TCOON:518:1,2016-10-04T09:18:00Z,29.5150,-94.5133,1.683,1111122 
TCOON,ioos:station:TCOON:518:1,2016-10-04T10:18:00Z,29.5150,-94.5133,1.688,1111122 
TCOON,ioos:station:TCOON:518:1,2016-10-04T11:18:00Z,29.5150,-94.5133,1.684,1111122 
TCOON,ioos:station:TCOON:518:1,2016-10-04T12:18:00Z,29.5150,-94.5133,1.659,1111122 
TCOON,ioos:station:TCOON:518:1,2016-10-04T13:18:00Z,29.5150,-94.5133,1.649,1111122 
TCOON,ioos:station:TCOON:518:1,2016-10-04T14:18:00Z,29.5150,-94.5133,1.609,1111122 
TCOON,ioos:station:TCOON:518:1,2016-10-04T15:18:00Z,29.5150,-94.5133,1.578,1111122 
TCOON,ioos:station:TCOON:518:1,2016-10-04T16:18:00Z,29.5150,-94.5133,1.542,1111122 
TCOON,ioos:station:TCOON:518:1,2016-10-04T18:18:00Z,29.5150,-94.5133,1.427,1111122 
TCOON,ioos:station:TCOON:518:1,2016-10-04T19:18:00Z,29.5150,-94.5133,1.377,1111122 
TCOON,ioos:station:TCOON:518:1,2016-10-04T20:18:00Z,29.5150,-94.5133,1.36,1111122 
TCOON,ioos:station:TCOON:518:1,2016-10-04T21:18:00Z,29.5150,-94.5133,1.34,1111122 
TCOON,ioos:station:TCOON:518:1,2016-10-04T22:18:00Z,29.5150,-94.5133,1.387,1111122 
TCOON,ioos:station:TCOON:518:1,2016-10-04T23:18:00Z,29.5150,-94.5133,1.454,1111122 
TCOON,ioos:station:TCOON:518:1,2016-10-05T00:18:00Z,29.5150,-94.5133,1.51,1111122 
TCOON,ioos:station:TCOON:518:1,2016-10-05T01:18:00Z,29.5150,-94.5133,1.592,1111122 
TCOON,ioos:station:TCOON:518:1,2016-10-05T02:18:00Z,29.5150,-94.5133,1.668,1111122 
TCOON,ioos:station:TCOON:518:1,2016-10-05T03:18:00Z,29.5150,-94.5133,1.699,1111122 
TCOON,ioos:station:TCOON:518:1,2016-10-05T04:18:00Z,29.5150,-94.5133,1.717,1111122 
TCOON,ioos:station:TCOON:518:1,2016-10-05T05:18:00Z,29.5150,-94.5133,1.749,1111122 
TCOON,ioos:station:TCOON:518:1,2016-10-05T06:24:00Z,29.5150,-94.5133,1.752,1111122 
TCOON,ioos:station:TCOON:518:1,2016-10-05T07:18:00Z,29.5150,-94.5133,1.755,1111122 
TCOON,ioos:station:TCOON:518:1,2016-10-05T08:18:00Z,29.5150,-94.5133,1.776,1111122 
TCOON,ioos:station:TCOON:518:1,2016-10-05T09:18:00Z,29.5150,-94.5133,1.81,1111122 
TCOON,ioos:station:TCOON:518:1,2016-10-05T10:18:00Z,29.5150,-94.5133,1.787,1111122 
TCOON,ioos:station:TCOON:518:1,2016-10-05T11:18:00Z,29.5150,-94.5133,1.743,1111122 
TCOON,ioos:station:TCOON:518:1,2016-10-05T12:18:00Z,29.5150,-94.5133,1.749,1111122 
TCOON,ioos:station:TCOON:518:1,2016-10-05T13:18:00Z,29.5150,-94.5133,1.725,1111122 
TCOON,ioos:station:TCOON:518:1,2016-10-05T14:18:00Z,29.5150,-94.5133,1.665,1111122 
TCOON,ioos:station:TCOON:518:1,2016-10-05T15:18:00Z,29.5150,-94.5133,1.629,1111122 
TCOON,ioos:station:TCOON:518:1,2016-10-05T16:18:00Z,29.5150,-94.5133,1.564,1111122 
TCOON,ioos:station:TCOON:518:1,2016-10-05T17:18:00Z,29.5150,-94.5133,1.47,1111122 
TCOON,ioos:station:TCOON:518:1,2016-10-05T18:18:00Z,29.5150,-94.5133,1.431,1111122 
TCOON,ioos:station:TCOON:518:1,2016-10-05T19:18:00Z,29.5150,-94.5133,1.361,1111122 
TCOON,ioos:station:TCOON:518:1,2016-10-05T20:18:00Z,29.5150,-94.5133,1.331,1111122 
TCOON,ioos:station:TCOON:518:1,2016-10-05T21:18:00Z,29.5150,-94.5133,1.303,1111122 
TCOON,ioos:station:TCOON:518:1,2016-10-05T22:12:00Z,29.5150,-94.5133,1.295,1111122 
TCOON,ioos:station:TCOON:518:1,2016-10-05T23:18:00Z,29.5150,-94.5133,1.305,1111122 
TCOON,ioos:station:TCOON:518:1,2016-10-06T00:18:00Z,29.5150,-94.5133,1.359,1111122 
TCOON,ioos:station:TCOON:518:1,2016-10-06T01:18:00Z,29.5150,-94.5133,1.424,1111122 
TCOON,ioos:station:TCOON:518:1,2016-10-06T02:18:00Z,29.5150,-94.5133,1.538,1111122 
TCOON,ioos:station:TCOON:518:1,2016-10-06T03:18:00Z,29.5150,-94.5133,1.594,1111122 
TCOON,ioos:station:TCOON:518:1,2016-10-06T04:18:00Z,29.5150,-94.5133,1.636,1111122 
TCOON,ioos:station:TCOON:518:1,2016-10-06T05:12:00Z,29.5150,-94.5133,1.633,1111122 
TCOON,ioos:station:TCOON:518:1,2016-10-06T06:18:00Z,29.5150,-94.5133,1.686,1111122 
TCOON,ioos:station:TCOON:518:1,2016-10-06T07:18:00Z,29.5150,-94.5133,1.721,1111122 
TCOON,ioos:station:TCOON:518:1,2016-10-06T08:12:00Z,29.5150,-94.5133,1.718,1111122 
TCOON,ioos:station:TCOON:518:1,2016-10-06T09:18:00Z,29.5150,-94.5133,1.738,1111122 
TCOON,ioos:station:TCOON:518:1,2016-10-06T10:18:00Z,29.5150,-94.5133,1.78,1111122 
TCOON,ioos:station:TCOON:518:1,2016-10-06T11:18:00Z,29.5150,-94.5133,1.798,1111122 
TCOON,ioos:station:TCOON:518:1,2016-10-06T12:12:00Z,29.5150,-94.5133,1.81,1111122 
TCOON,ioos:station:TCOON:518:1,2016-10-06T13:18:00Z,29.5150,-94.5133,1.781,1111122 
TCOON,ioos:station:TCOON:518:1,2016-10-06T14:18:00Z,29.5150,-94.5133,1.785,1111122 
TCOON,ioos:station:TCOON:518:1,2016-10-06T15:18:00Z,29.5150,-94.5133,1.74,1111122 
TCOON,ioos:station:TCOON:518:1,2016-10-06T16:18:00Z,29.5150,-94.5133,1.691,1111122 
TCOON,ioos:station:TCOON:518:1,2016-10-06T17:18:00Z,29.5150,-94.5133,1.639,1111122 
TCOON,ioos:station:TCOON:518:1,2016-10-06T18:18:00Z,29.5150,-94.5133,1.6,1111122 
TCOON,ioos:station:TCOON:518:1,2016-10-06T19:18:00Z,29.5150,-94.5133,1.548,1111122 
TCOON,ioos:station:TCOON:518:1,2016-10-06T20:18:00Z,29.5150,-94.5133,1.497,1111122 
TCOON,ioos:station:TCOON:518:1,2016-10-06T21:18:00Z,29.5150,-94.5133,1.432,1111122 
TCOON,ioos:station:TCOON:518:1,2016-10-06T22:18:00Z,29.5150,-94.5133,1.404,1111122 
TCOON,ioos:station:TCOON:518:1,2016-10-06T23:18:00Z,29.5150,-94.5133,1.389,1111122 
TCOON,ioos:station:TCOON:518:1,2016-10-07T00:18:00Z,29.5150,-94.5133,1.418,1111122 
TCOON,ioos:station:TCOON:518:1,2016-10-07T01:18:00Z,29.5150,-94.5133,1.489,1111122 
TCOON,ioos:station:TCOON:518:1,2016-10-07T02:18:00Z,29.5150,-94.5133,1.595,1111122 
TCOON,ioos:station:TCOON:518:1,2016-10-07T03:18:00Z,29.5150,-94.5133,1.665,1111122 
TCOON,ioos:station:TCOON:518:1,2016-10-07T04:18:00Z,29.5150,-94.5133,1.723,1111122 
TCOON,ioos:station:TCOON:518:1,2016-10-07T05:18:00Z,29.5150,-94.5133,1.732,1111122 
TCOON,ioos:station:TCOON:518:1,2016-10-07T06:18:00Z,29.5150,-94.5133,1.756,1111122 
TCOON,ioos:station:TCOON:518:1,2016-10-07T07:18:00Z,29.5150,-94.5133,1.798,1111122 
TCOON,ioos:station:TCOON:518:1,2016-10-07T08:18:00Z,29.5150,-94.5133,1.813,1111122 
TCOON,ioos:station:TCOON:518:1,2016-10-07T09:18:00Z,29.5150,-94.5133,1.801,1111122 
TCOON,ioos:station:TCOON:518:1,2016-10-07T10:18:00Z,29.5150,-94.5133,1.795,1111122 
TCOON,ioos:station:TCOON:518:1,2016-10-07T11:18:00Z,29.5150,-94.5133,1.75,1111122 
TCOON,ioos:station:TCOON:518:1,2016-10-07T12:18:00Z,29.5150,-94.5133,1.739,1111122 
TCOON,ioos:station:TCOON:518:1,2016-10-07T13:18:00Z,29.5150,-94.5133,1.692,1111122 
TCOON,ioos:station:TCOON:518:1,2016-10-07T15:18:00Z,29.5150,-94.5133,1.604,1111122 
TCOON,ioos:station:TCOON:518:1,2016-10-07T16:18:00Z,29.5150,-94.5133,1.563,1111122 
TCOON,ioos:station:TCOON:518:1,2016-10-07T18:18:00Z,29.5150,-94.5133,1.518,1111122 
TCOON,ioos:station:TCOON:518:1,2016-10-07T19:18:00Z,29.5150,-94.5133,1.45,1111122 
TCOON,ioos:station:TCOON:518:1,2016-10-07T20:18:00Z,29.5150,-94.5133,1.391,1111122 
TCOON,ioos:station:TCOON:518:1,2016-10-07T21:18:00Z,29.5150,-94.5133,1.338,1111122 
TCOON,ioos:station:TCOON:518:1,2016-10-07T22:18:00Z,29.5150,-94.5133,1.318,1111122 
TCOON,ioos:station:TCOON:518:1,2016-10-07T23:18:00Z,29.5150,-94.5133,1.306,1111122 
TCOON,ioos:station:TCOON:518:1,2016-10-08T00:18:00Z,29.5150,-94.5133,1.307,1111122 
TCOON,ioos:station:TCOON:518:1,2016-10-08T01:18:00Z,29.5150,-94.5133,1.385,1111122 
TCOON,ioos:station:TCOON:518:1,2016-10-08T02:18:00Z,29.5150,-94.5133,1.479,1111122 
TCOON,ioos:station:TCOON:518:1,2016-10-08T04:18:00Z,29.5150,-94.5133,1.584,1111122 
TCOON,ioos:station:TCOON:518:1,2016-10-08T05:18:00Z,29.5150,-94.5133,1.622,1111122 
TCOON,ioos:station:TCOON:518:1,2016-10-08T06:18:00Z,29.5150,-94.5133,1.652,1111122 
TCOON,ioos:station:TCOON:518:1,2016-10-08T07:18:00Z,29.5150,-94.5133,1.679,1111122 
TCOON,ioos:station:TCOON:518:1,2016-10-08T08:18:00Z,29.5150,-94.5133,1.659,1111122 
TCOON,ioos:station:TCOON:518:1,2016-10-08T09:18:00Z,29.5150,-94.5133,1.648,1111122 
TCOON,ioos:station:TCOON:518:1,2016-10-08T10:18:00Z,29.5150,-94.5133,1.557,1111122 
TCOON,ioos:station:TCOON:518:1,2016-10-08T11:12:00Z,29.5150,-94.5133,1.518,1111122 
TCOON,ioos:station:TCOON:518:1,2016-10-08T12:18:00Z,29.5150,-94.5133,1.496,1111122 
TCOON,ioos:station:TCOON:518:1,2016-10-08T13:18:00Z,29.5150,-94.5133,1.474,1111122 
TCOON,ioos:station:TCOON:518:1,2016-10-08T14:18:00Z,29.5150,-94.5133,1.449,1111122 
TCOON,ioos:station:TCOON:518:1,2016-10-08T15:18:00Z,29.5150,-94.5133,1.412,1111122 
TCOON,ioos:station:TCOON:518:1,2016-10-08T16:18:00Z,29.5150,-94.5133,1.408,1111122 
TCOON,ioos:station:TCOON:518:1,2016-10-08T17:18:00Z,29.5150,-94.5133,1.42,1111122 
TCOON,ioos:station:TCOON:518:1,2016-10-08T18:18:00Z,29.5150,-94.5133,1.41,1111122 
TCOON,ioos:station:TCOON:518:1,2016-10-08T19:18:00Z,29.5150,-94.5133,1.394,1111122 
TCOON,ioos:station:TCOON:518:1,2016-10-08T20:18:00Z,29.5150,-94.5133,1.364,1111122 
TCOON,ioos:station:TCOON:518:1,2016-10-08T21:18:00Z,29.5150,-94.5133,1.33,1111122 
TCOON,ioos:station:TCOON:518:1,2016-10-08T22:18:00Z,29.5150,-94.5133,1.317,1111122 
TCOON,ioos:station:TCOON:518:1,2016-10-08T23:18:00Z,29.5150,-94.5133,1.296,1111122 
TCOON,ioos:station:TCOON:518:1,2016-10-09T00:18:00Z,29.5150,-94.5133,1.292,1111122 
TCOON,ioos:station:TCOON:518:1,2016-10-09T01:18:00Z,29.5150,-94.5133,1.314,1111122 
TCOON,ioos:station:TCOON:518:1,2016-10-09T02:18:00Z,29.5150,-94.5133,1.354,1111122 
TCOON,ioos:station:TCOON:518:1,2016-10-09T03:18:00Z,29.5150,-94.5133,1.417,1111122 
TCOON,ioos:station:TCOON:518:1,2016-10-09T04:18:00Z,29.5150,-94.5133,1.438,1111122 
TCOON,ioos:station:TCOON:518:1,2016-10-09T05:18:00Z,29.5150,-94.5133,1.427,1111122 
TCOON,ioos:station:TCOON:518:1,2016-10-09T06:24:00Z,29.5150,-94.5133,1.47,1111122 
TCOON,ioos:station:TCOON:518:1,2016-10-09T07:18:00Z,29.5150,-94.5133,1.498,1111122 
TCOON,ioos:station:TCOON:518:1,2016-10-09T08:18:00Z,29.5150,-94.5133,1.549,1111122 
TCOON,ioos:station:TCOON:518:1,2016-10-09T09:18:00Z,29.5150,-94.5133,1.562,1111122 
TCOON,ioos:station:TCOON:518:1,2016-10-09T10:18:00Z,29.5150,-94.5133,1.577,1111122 
TCOON,ioos:station:TCOON:518:1,2016-10-09T11:18:00Z,29.5150,-94.5133,1.582,1111122 
TCOON,ioos:station:TCOON:518:1,2016-10-09T12:18:00Z,29.5150,-94.5133,1.555,1111122 
TCOON,ioos:station:TCOON:518:1,2016-10-09T13:18:00Z,29.5150,-94.5133,1.562,1111122 
TCOON,ioos:station:TCOON:518:1,2016-10-09T14:18:00Z,29.5150,-94.5133,1.521,1111122 
TCOON,ioos:station:TCOON:518:1,2016-10-09T15:18:00Z,29.5150,-94.5133,1.47,1111122 
TCOON,ioos:station:TCOON:518:1,2016-10-09T16:18:00Z,29.5150,-94.5133,1.454,1111122 
TCOON,ioos:station:TCOON:518:1,2016-10-09T17:18:00Z,29.5150,-94.5133,1.468,1111122 
TCOON,ioos:station:TCOON:518:1,2016-10-09T18:18:00Z,29.5150,-94.5133,1.458,1111122 
TCOON,ioos:station:TCOON:518:1,2016-10-09T19:18:00Z,29.5150,-94.5133,1.468,1111122 
TCOON,ioos:station:TCOON:518:1,2016-10-09T20:18:00Z,29.5150,-94.5133,1.447,1111122 
TCOON,ioos:station:TCOON:518:1,2016-10-09T21:18:00Z,29.5150,-94.5133,1.411,1111122 
TCOON,ioos:station:TCOON:518:1,2016-10-09T22:18:00Z,29.5150,-94.5133,1.36,1111122 
TCOON,ioos:station:TCOON:518:1,2016-10-09T23:18:00Z,29.5150,-94.5133,1.288,1111122 
TCOON,ioos:station:TCOON:518:1,2016-10-10T00:18:00Z,29.5150,-94.5133,1.243,1111122 
TCOON,ioos:station:TCOON:518:1,2016-10-10T01:18:00Z,29.5150,-94.5133,1.253,1111122 
TCOON,ioos:station:TCOON:518:1,2016-10-10T02:18:00Z,29.5150,-94.5133,1.279,1111122 
TCOON,ioos:station:TCOON:518:1,2016-10-10T03:18:00Z,29.5150,-94.5133,1.325,1111122 
TCOON,ioos:station:TCOON:518:1,2016-10-10T04:18:00Z,29.5150,-94.5133,1.346,1111122 
TCOON,ioos:station:TCOON:518:1,2016-10-10T05:18:00Z,29.5150,-94.5133,1.424,1111122 
TCOON,ioos:station:TCOON:518:1,2016-10-10T06:18:00Z,29.5150,-94.5133,1.491,1111122 
TCOON,ioos:station:TCOON:518:1,2016-10-10T07:18:00Z,29.5150,-94.5133,1.548,1111122 
TCOON,ioos:station:TCOON:518:1,2016-10-10T08:18:00Z,29.5150,-94.5133,1.582,1111122 
TCOON,ioos:station:TCOON:518:1,2016-10-10T09:18:00Z,29.5150,-94.5133,1.608,1111122 
TCOON,ioos:station:TCOON:518:1,2016-10-10T10:18:00Z,29.5150,-94.5133,1.632,1111122 
TCOON,ioos:station:TCOON:518:1,2016-10-10T11:18:00Z,29.5150,-94.5133,1.625,1111122 
TCOON,ioos:station:TCOON:518:1,2016-10-10T12:18:00Z,29.5150,-94.5133,1.659,1111122 
TCOON,ioos:station:TCOON:518:1,2016-10-10T13:18:00Z,29.5150,-94.5133,1.628,1111122 
TCOON,ioos:station:TCOON:518:1,2016-10-10T14:18:00Z,29.5150,-94.5133,1.615,1111122 
TCOON,ioos:station:TCOON:518:1,2016-10-10T15:18:00Z,29.5150,-94.5133,1.62,1111122 
TCOON,ioos:station:TCOON:518:1,2016-10-10T16:18:00Z,29.5150,-94.5133,1.618,1111122 
TCOON,ioos:station:TCOON:518:1,2016-10-10T17:18:00Z,29.5150,-94.5133,1.606,1111122 
TCOON,ioos:station:TCOON:518:1,2016-10-10T18:18:00Z,29.5150,-94.5133,1.573,1111122 
TCOON,ioos:station:TCOON:518:1,2016-10-10T19:18:00Z,29.5150,-94.5133,1.554,1111122 
TCOON,ioos:station:TCOON:518:1,2016-10-10T21:18:00Z,29.5150,-94.5133,1.457,1111122 
TCOON,ioos:station:TCOON:518:1,2016-10-10T22:18:00Z,29.5150,-94.5133,1.38,1111122 
TCOON,ioos:station:TCOON:518:1,2016-10-10T23:18:00Z,29.5150,-94.5133,1.359,1111122 
TCOON,ioos:station:TCOON:518:1,2016-10-11T00:18:00Z,29.5150,-94.5133,1.332,1111122 
TCOON,ioos:station:TCOON:518:1,2016-10-11T01:18:00Z,29.5150,-94.5133,1.334,1111122 
TCOON,ioos:station:TCOON:518:1,2016-10-11T02:18:00Z,29.5150,-94.5133,1.321,1111122 
TCOON,ioos:station:TCOON:518:1,2016-10-11T03:18:00Z,29.5150,-94.5133,1.348,1111122 
TCOON,ioos:station:TCOON:518:1,2016-10-11T04:18:00Z,29.5150,-94.5133,1.408,1111122 
TCOON,ioos:station:TCOON:518:1,2016-10-11T05:18:00Z,29.5150,-94.5133,1.501,1111122 
TCOON,ioos:station:TCOON:518:1,2016-10-11T06:18:00Z,29.5150,-94.5133,1.565,1111122 
TCOON,ioos:station:TCOON:518:1,2016-10-11T07:12:00Z,29.5150,-94.5133,1.605,1111122 
TCOON,ioos:station:TCOON:518:1,2016-10-11T08:18:00Z,29.5150,-94.5133,1.643,1111122 
TCOON,ioos:station:TCOON:518:1,2016-10-11T09:18:00Z,29.5150,-94.5133,1.704,1111122 
TCOON,ioos:station:TCOON:518:1,2016-10-11T10:18:00Z,29.5150,-94.5133,1.736,1111122 
TCOON,ioos:station:TCOON:518:1,2016-10-11T11:18:00Z,29.5150,-94.5133,1.73,1111122 
TCOON,ioos:station:TCOON:518:1,2016-10-11T12:18:00Z,29.5150,-94.5133,1.762,1111122 
TCOON,ioos:station:TCOON:518:1,2016-10-11T13:18:00Z,29.5150,-94.5133,1.796,1111122 
TCOON,ioos:station:TCOON:518:1,2016-10-11T14:18:00Z,29.5150,-94.5133,1.808,1111122 
TCOON,ioos:station:TCOON:518:1,2016-10-11T15:18:00Z,29.5150,-94.5133,1.769,1111122 
TCOON,ioos:station:TCOON:518:1,2016-10-11T16:18:00Z,29.5150,-94.5133,1.778,1111122 
TCOON,ioos:station:TCOON:518:1,2016-10-11T17:18:00Z,29.5150,-94.5133,1.765,1111122 
TCOON,ioos:station:TCOON:518:1,2016-10-11T18:18:00Z,29.5150,-94.5133,1.72,1111122 
TCOON,ioos:station:TCOON:518:1,2016-10-11T19:18:00Z,29.5150,-94.5133,1.69,1111122 
TCOON,ioos:station:TCOON:518:1,2016-10-11T20:18:00Z,29.5150,-94.5133,1.682,1111122 
TCOON,ioos:station:TCOON:518:1,2016-10-11T21:24:00Z,29.5150,-94.5133,1.658,1111122 
TCOON,ioos:station:TCOON:518:1,2016-10-11T22:18:00Z,29.5150,-94.5133,1.663,1111122 
TCOON,ioos:station:TCOON:518:1,2016-10-11T23:18:00Z,29.5150,-94.5133,1.618,1111122 
TCOON,ioos:station:TCOON:518:1,2016-10-12T00:18:00Z,29.5150,-94.5133,1.573,1111122 
TCOON,ioos:station:TCOON:518:1,2016-10-12T01:18:00Z,29.5150,-94.5133,1.543,1111122 
TCOON,ioos:station:TCOON:518:1,2016-10-12T02:18:00Z,29.5150,-94.5133,1.508,1111122 
TCOON,ioos:station:TCOON:518:1,2016-10-12T03:18:00Z,29.5150,-94.5133,1.473,1111122 
TCOON,ioos:station:TCOON:518:1,2016-10-12T04:18:00Z,29.5150,-94.5133,1.449,1111122 
TCOON,ioos:station:TCOON:518:1,2016-10-12T05:18:00Z,29.5150,-94.5133,1.465,1111122 
TCOON,ioos:station:TCOON:518:1,2016-10-12T06:18:00Z,29.5150,-94.5133,1.534,1111122 
TCOON,ioos:station:TCOON:518:1,2016-10-12T07:18:00Z,29.5150,-94.5133,1.629,1111122 
TCOON,ioos:station:TCOON:518:1,2016-10-12T08:18:00Z,29.5150,-94.5133,1.674,1111122 
TCOON,ioos:station:TCOON:518:1,2016-10-12T09:18:00Z,29.5150,-94.5133,1.736,1111122 
TCOON,ioos:station:TCOON:518:1,2016-10-12T10:18:00Z,29.5150,-94.5133,1.734,1111122 
TCOON,ioos:station:TCOON:518:1,2016-10-12T11:18:00Z,29.5150,-94.5133,1.742,1111122 
TCOON,ioos:station:TCOON:518:1,2016-10-12T12:18:00Z,29.5150,-94.5133,1.751,1111122 
TCOON,ioos:station:TCOON:518:1,2016-10-12T13:18:00Z,29.5150,-94.5133,1.722,1111122 
TCOON,ioos:station:TCOON:518:1,2016-10-12T14:18:00Z,29.5150,-94.5133,1.682,1111122 
TCOON,ioos:station:TCOON:518:1,2016-10-12T15:18:00Z,29.5150,-94.5133,1.641,1111122 
TCOON,ioos:station:TCOON:518:1,2016-10-12T16:18:00Z,29.5150,-94.5133,1.596,1111122 
TCOON,ioos:station:TCOON:518:1,2016-10-12T17:18:00Z,29.5150,-94.5133,1.578,1111122 
TCOON,ioos:station:TCOON:518:1,2016-10-12T18:18:00Z,29.5150,-94.5133,1.569,1111122 
TCOON,ioos:station:TCOON:518:1,2016-10-12T19:18:00Z,29.5150,-94.5133,1.557,1111122 
TCOON,ioos:station:TCOON:518:1,2016-10-12T20:18:00Z,29.5150,-94.5133,1.587,1111122 
TCOON,ioos:station:TCOON:518:1,2016-10-12T21:24:00Z,29.5150,-94.5133,1.622,1111122 
TCOON,ioos:station:TCOON:518:1,2016-10-12T22:18:00Z,29.5150,-94.5133,1.603,1111122 
TCOON,ioos:station:TCOON:518:1,2016-10-12T23:24:00Z,29.5150,-94.5133,1.572,1111122 
TCOON,ioos:station:TCOON:518:1,2016-10-13T00:18:00Z,29.5150,-94.5133,1.522,1111122 
TCOON,ioos:station:TCOON:518:1,2016-10-13T01:18:00Z,29.5150,-94.5133,1.489,1111122 